Terminal Aerodrome Forecast
Issued by NWS Brownsville, TX

Home | Current Version | Previous Version | Text Only | Print | Product List | Glossary On
Versions: 1 2 3 4 5 6 7 8 9 10 11 12
000
FTUS44 KBRO 281720
TAFBRO
TAF
KBRO 281720Z 2818/2918 VRB05KT P6SM SCT050
     FM281900 08010KT P6SM FEW050
     FM290300 VRB02KT P6SM FEW020=

USA.gov is the U.S. government's official web portal to all federal, state and local government web resources and services.